Waarnemingen

Advertentie
Mijn weer
Reims-Prunay, Frankrijk (7072): temperatuur & dauwpunt: 11.07.2019 00:00:00 - 17.07.2019 00:00:00 (CEST)Reims-Prunay, Frankrijk (7072): temperatuur 5cm: 11.07.2019 00:00:00 - 17.07.2019 00:00:00 (CEST)Reims-Prunay, Frankrijk (7072): temperatuur -20cm & temperatuur -100cm: 11.07.2019 00:00:00 - 17.07.2019 00:00:00 (CEST)Reims-Prunay, Frankrijk (7072): windsnelheid & windstoten: 11.07.2019 00:00:00 - 17.07.2019 00:00:00 (CEST)Reims-Prunay, Frankrijk (7072): windrichting: 11.07.2019 00:00:00 - 17.07.2019 00:00:00 (CEST)Reims-Prunay, Frankrijk (7072): luchtdruk: 11.07.2019 00:00:00 - 17.07.2019 00:00:00 (CEST)Reims-Prunay, Frankrijk (7072): zicht: 11.07.2019 00:00:00 - 17.07.2019 00:00:00 (CEST)Reims-Prunay, Frankrijk (7072): Zonneschijnduur: 11.07.2019 00:00:00 - 17.07.2019 00:00:00 (CEST)Reims-Prunay, Frankrijk (7072): neerslag: 11.07.2019 00:00:00 - 17.07.2019 00:00:00 (CEST)
Datum & Tijd tt [°C] td [°C] tt 5cm [°C] tt -20cm [°C] tt -100cm [°C] ff [km/u] ff [kn] fx [km/u] fx [kn] dd ppp [hPa] vv [km] sd [min] rr [mm]
17.07.2019 00:00:00 15,6 10,1 11,8 21,3 17,6 11 6 16 8 N 1017,3 18 0 0,0
16.07.2019 23:00:00 14,8 9,8 12,8 21,5 17,7 13 7 16 9 N 1017,3 19 0 0,0
16.07.2019 22:00:00 15,8 9,2 13,6 21,5 17,6 10 6 16 9 N 1017,0 20 14 0,0
16.07.2019 21:00:00 21,3 8,9 21,8 21,4 17,6 11 6 21 11 NNW 1016,7 20 60 0,0
16.07.2019 20:00:00 24,0 8,8 24,9 21,4 17,6 14 8 23 12 NNW 1016,5 20 56 0,0
16.07.2019 19:00:00 23,8 8,6 25,5 21,2 17,6 13 7 26 14 N 1016,5 20 37 0,0
16.07.2019 18:00:00 24,9 8,4 28,6 20,9 17,6 14 7 26 14 NNW 1016,5 20 60 0,0
16.07.2019 17:00:00 25,5 7,6 32,0 20,6 17,6 14 7 26 14 N 1016,8 20 60 0,0
16.07.2019 16:00:00 24,6 7,3 30,0 20,2 17,6 12 6 24 13 N 1017,3 18 60 0,0
16.07.2019 15:00:00 23,3 7,8 28,9 19,8 17,6 6 4 33 18 N 1017,6 20 60 0,0
16.07.2019 14:00:00 22,9 8,6 29,2 19,5 17,6 9 5 22 12 NNO 1018,1 20 60 0,0
16.07.2019 13:00:00 21,3 9,5 28,3 19,2 17,6 7 4 22 12 NNW 1018,7 19 60 0,0
16.07.2019 12:00:00 20,4 9,3 25,8 19,1 17,6 10 6 20 11 NO 1018,9 20 60 0,0
16.07.2019 11:00:00 18,8 8,7 24,2 19,0 17,6 9 5 18 10 NO 1019,3 17 60 0,0
16.07.2019 10:00:00 18,0 9,3 21,6 19,0 17,6 9 5 19 10 NO 1019,5 20 60 0,0
16.07.2019 09:00:00 15,9 9,6 14,2 19,2 17,6 5 3 10 5 NNO 1019,9 19 60 0,0
16.07.2019 08:00:00 12,2 9,2 8,7 19,4 17,6 6 3 10 6 W 1020,1 11 60 0,0
16.07.2019 07:00:00 8,4 7,2 2,5 19,6 17,7 3 2 6 3 W 1020,0 9 36 0,0
16.07.2019 06:00:00 6,9 5,2 2,5 19,9 17,7 4 2 8 5 W 1020,1 10 0 0,0
16.07.2019 05:00:00 7,3 5,8 2,4 20,1 17,6 5 3 9 5 W 1019,9 16 0 0,0
16.07.2019 04:00:00 6,0 4,2 2,5 20,4 17,7 3 2 6 3 WZW 1020,1 17 0 0,0
16.07.2019 03:00:00 7,8 5,6 3,1 20,6 17,6 5 3 7 4 W 1020,3 19 0 0,0
16.07.2019 02:00:00 9,5 6,6 4,5 20,8 17,6 0 0 9 5 N 1020,2 20 0 0,0
16.07.2019 01:00:00 12,5 7,8 9,7 21,0 17,7 6 3 10 6 NNW 1020,1 20 0 0,0
16.07.2019 00:00:00 13,5 8,5 11,4 21,1 17,7 8 4 21 12 N 1020,0 20 0 0,0
15.07.2019 23:00:00 14,5 8,9 13,0 21,2 17,6 10 5 20 11 N 1019,7 20 0 0,0
15.07.2019 22:00:00 16,2 9,1 14,7 21,3 17,7 13 7 33 18 N 1019,2 20 16 0,0
15.07.2019 21:00:00 19,6 9,5 20,7 21,3 17,7 19 11 29 16 N 1018,6 19 60 0,0
15.07.2019 20:00:00 21,7 9,6 24,0 21,2 17,6 11 6 28 15 NNO 1018,1 20 60 0,0
15.07.2019 19:00:00 22,4 9,2 27,5 21,0 17,7 19 10 32 17 NNO 1018,1 20 60 0,0
15.07.2019 18:00:00 23,2 9,2 30,4 20,8 17,7 15 8 32 17 NNO 1018,0 20 60 0,0
15.07.2019 17:00:00 23,3 8,2 29,8 20,5 17,7 18 10 35 19 N 1018,5 20 60 0,0
15.07.2019 16:00:00 23,4 8,3 28,9 20,2 17,6 18 10 34 18 N 1018,6 20 58 0,0
15.07.2019 15:00:00 23,1 8,8 28,3 19,9 17,6 15 8 28 15 N 1018,4 20 50 0,0
15.07.2019 14:00:00 22,2 9,0 25,3 19,6 17,6 13 7 34 18 N 1018,7 20 44 0,0
15.07.2019 13:00:00 21,2 9,4 23,7 19,5 17,7 11 6 39 21 N 1018,8 20 14 0,0
15.07.2019 12:00:00 20,2 10,0 23,2 19,3 17,7 13 7 25 14 N 1019,0 20 26 0,0
15.07.2019 11:00:00 20,4 10,2 23,2 19,2 17,6 13 7 25 14 N 1019,1 20 60 0,0
15.07.2019 10:00:00 18,1 10,9 16,7 19,3 17,7 8 5 19 11 N 1019,6 20 54 0,0
15.07.2019 09:00:00 15,0 11,0 14,7 19,3 17,7 10 6 19 10 NW 1019,8 20 0 0,0
15.07.2019 08:00:00 13,8 10,6 13,4 19,5 17,7 9 5 18 10 WNW 1019,6 20 0 0,0
15.07.2019 07:00:00 13,2 10,6 12,9 19,6 17,7 11 6 22 12 NW 1019,3 20 0 0,0
15.07.2019 06:00:00 13,2 10,6 12,9 19,7 17,7 10 5 14 8 WNW 1019,2 20 0 0,0
15.07.2019 05:00:00 14,3 11,1 13,8 19,8 17,7 10 5 18 10 N 1019,3 20 0 0,0
15.07.2019 04:00:00 14,3 11,1 13,6 19,9 17,7 11 6 20 11 NNO 1019,3 20 0 0,0
15.07.2019 03:00:00 14,8 10,8 14,3 20,0 17,7 10 5 21 11 N 1019,6 20 0 0,0
15.07.2019 02:00:00 15,4 10,8 13,2 20,1 17,7 14 8 21 12 N 1019,5 20 0 0,0
15.07.2019 01:00:00 15,3 10,5 14,2 20,2 17,7 12 7 26 14 N 1019,4 20 0 0,0
15.07.2019 00:00:00 16,6 10,7 16,0 20,4 17,7 14 8 26 14 NNO 1019,5 20 0 0,0
14.07.2019 23:00:00 17,3 10,4 15,7 20,4 17,7 18 10 30 16 NNO 1019,5 20 0 0,0
14.07.2019 22:00:00 17,3 10,2 16,0 20,5 17,7 13 7 24 13 N 1019,0 20 0 0,0
14.07.2019 21:00:00 18,5 9,3 17,6 20,4 17,7 15 8 27 15 NNO 1018,6 20 0 0,0
14.07.2019 20:00:00 19,7 9,3 20,2 20,4 17,7 15 8 29 16 NNO 1018,6 20 0 0,0
14.07.2019 19:00:00 20,4 9,0 22,4 20,2 17,7 19 11 36 19 NNO 1018,4 20 36 0,0
14.07.2019 18:00:00 21,2 8,5 24,1 20,1 17,7 17 9 38 20 NNO 1018,3 20 24 0,0
14.07.2019 17:00:00 21,5 8,7 24,7 19,9 17,7 19 11 40 21 N 1018,6 20 22 0,0
14.07.2019 16:00:00 20,9 9,5 24,7 19,7 17,7 21 11 37 20 NNO 1018,7 20 21 0,0
14.07.2019 15:00:00 20,5 9,4 22,8 19,6 17,7 20 11 37 20 NNO 1019,1 20 27 0,0
14.07.2019 14:00:00 19,3 10,0 21,9 19,6 17,7 20 11 36 20 NNO 1019,5 20 1 0,0
14.07.2019 13:00:00 18,3 9,9 20,7 19,5 17,7 19 10 31 17 NNO 1019,7 20 0 0,0
14.07.2019 12:00:00 17,9 10,8 18,9 19,4 17,7 17 9 29 15 NNO 1019,8 20 0 0,0
14.07.2019 11:00:00 17,2 11,0 19,2 19,3 17,7 19 10 32 18 N 1020,0 20 20 0,0
14.07.2019 10:00:00 18,1 11,2 19,6 19,4 17,7 21 11 32 17 N 1019,8 20 60 0,0
14.07.2019 09:00:00 16,0 11,6 14,5 19,5 17,7 15 8 24 13 NNW 1019,7 20 60 0,0
14.07.2019 08:00:00 13,4 11,3 12,5 19,6 17,7 17 9 27 15 NNW 1019,3 18 57 0,0
14.07.2019 07:00:00 12,0 10,6 11,3 19,8 17,7 10 5 16 9 WNW 1019,3 11 25 0,0
14.07.2019 06:00:00 12,2 10,8 11,0 19,9 17,7 10 5 19 11 W 1019,2 14 0 0,0
14.07.2019 05:00:00 12,7 10,9 11,2 20,0 17,7 8 4 17 9 WNW 1019,1 19 0 0,0
14.07.2019 04:00:00 12,6 10,5 11,3 20,2 17,7 6 4 22 12 Z 1019,5 18 0 0,0
14.07.2019 03:00:00 13,8 11,5 12,4 20,3 17,7 13 7 22 12 N 1019,8 20 0 0,0
14.07.2019 02:00:00 13,9 11,4 12,6 20,5 17,7 12 7 18 10 N 1019,9 20 0 0,0
14.07.2019 01:00:00 14,4 11,5 11,4 20,6 17,7 12 6 16 9 N 1019,9 20 0 0,0
14.07.2019 00:00:00 14,7 10,9 12,4 20,7 17,7 5 3 14 7 NW 1020,2 20 0 0,0
13.07.2019 23:00:00 15,2 11,0 13,4 20,9 17,7 9 5 23 12 NNW 1020,1 20 0 0,0
13.07.2019 22:00:00 17,1 11,1 15,9 20,9 17,7 17 9 25 14 N 1020,0 20 17 0,0
13.07.2019 21:00:00 19,6 11,4 20,2 20,9 17,7 19 11 35 19 N 1019,5 20 60 0,0
13.07.2019 20:00:00 21,4 12,5 22,9 20,8 17,7 22 12 35 19 N 1018,9 20 38 0,0
13.07.2019 19:00:00 22,5 11,6 23,1 20,7 17,7 22 12 33 18 NNW 1018,6 20 8 0,0
13.07.2019 18:00:00 23,5 11,5 24,4 20,6 17,7 15 8 32 18 NNW 1018,9 20 25 0,0
13.07.2019 17:00:00 22,6 11,9 24,3 20,5 17,7 13 7 25 13 N 1019,2 20 0 0,0
13.07.2019 16:00:00 22,5 12,4 24,6 20,4 17,7 14 8 26 14 NNW 1019,4 20 1 0,0
13.07.2019 15:00:00 21,7 12,3 23,8 20,2 17,7 15 8 25 13 N 1019,7 20 0 0,0
13.07.2019 14:00:00 21,1 12,2 23,4 20,1 17,7 11 6 25 14 NW 1019,7 20 0 0,0
13.07.2019 13:00:00 20,6 11,8 22,1 20,0 17,7 10 5 23 12 NNW 1019,9 20 1 0,0
13.07.2019 12:00:00 20,9 11,2 23,9 19,9 17,7 10 5 29 15 N 1019,7 20 16 0,0
13.07.2019 11:00:00 19,7 11,2 20,7 19,8 17,7 13 7 22 12 N 1019,8 20 17 0,0
13.07.2019 10:00:00 18,5 12,5 20,1 19,9 17,7 14 8 24 13 N 1019,8 20 13 0,0
13.07.2019 09:00:00 18,2 13,1 17,7 20,0 17,7 13 7 20 11 N 1019,5 20 58 0,0
13.07.2019 08:00:00 15,6 13,8 12,7 20,1 17,7 9 5 14 7 NW 1019,2 15 40 0,0
13.07.2019 07:00:00 13,1 12,2 6,6 20,4 17,7 6 3 9 5 WZW 1018,7 17 28 0,0
13.07.2019 06:00:00 10,6 9,4 5,4 20,5 17,7 4 2 10 5 W 1018,7 16 0 0,0
13.07.2019 05:00:00 9,4 7,2 5,8 20,7 17,7 0 0 6 3 N 1018,1 20 0 0,0
13.07.2019 04:00:00 11,3 9,0 7,3 20,9 17,7 4 2 7 4 ZZW 1017,8 20 0 0,0
13.07.2019 03:00:00 15,3 11,3 8,5 21,1 17,7 6 3 14 8 WNW 1017,4 20 0 0,0
13.07.2019 02:00:00 13,4 9,3 9,3 21,3 17,7 3 2 13 7 NW 1017,3 20 0 0,0
13.07.2019 01:00:00 16,6 10,9 15,0 21,4 17,6 8 4 21 11 NW 1017,5 20 0 0,0
13.07.2019 00:00:00 17,1 10,7 14,5 21,6 17,7 14 8 19 10 NW 1017,2 20 0 0,0
12.07.2019 23:00:00 16,7 10,3 14,9 21,6 17,7 11 6 23 13 NNW 1016,7 20 0 0,0
12.07.2019 22:00:00 18,6 10,7 16,9 21,7 17,7 8 5 28 15 N 1016,0 20 0 0,0
12.07.2019 21:00:00 21,5 10,9 21,6 21,7 17,7 18 10 34 18 N 1014,9 20 36 0,0
12.07.2019 20:00:00 23,7 12,3 24,1 21,6 17,7 20 11 45 24 N 1013,9 20 21 0,0
12.07.2019 19:00:00 24,0 11,7 24,3 21,5 17,7 27 14 46 25 NW 1013,7 20 20 0,0
12.07.2019 18:00:00 26,0 11,0 25,8 21,4 17,7 26 14 42 23 NW 1013,0 20 39 0,0
12.07.2019 17:00:00 26,0 10,2 26,4 21,2 17,6 25 14 42 23 W 1013,1 20 40 0,0
12.07.2019 16:00:00 25,5 10,9 26,0 21,0 17,7 19 11 41 22 NW 1013,1 19 27 0,0
12.07.2019 15:00:00 25,9 9,3 27,0 20,9 17,7 23 13 44 24 W 1013,3 20 47 0,0
12.07.2019 14:00:00 26,0 10,6 24,7 20,7 17,6 21 12 41 22 WNW 1013,5 20 34 0,0
12.07.2019 13:00:00 23,0 12,9 23,7 20,6 17,7 20 11 36 19 NW 1013,8 20 8 0,0
12.07.2019 12:00:00 24,0 12,6 25,7 20,5 17,7 19 10 35 19 WNW 1013,4 20 56 0,0
12.07.2019 11:00:00 21,6 13,8 22,5 20,4 17,7 14 8 28 15 W 1013,6 20 37 0,0
12.07.2019 10:00:00 20,6 13,8 22,4 20,5 17,7 16 9 29 16 WNW 1013,7 20 60 0,0
12.07.2019 09:00:00 19,3 12,8 19,1 20,6 17,7 13 7 23 13 WNW 1013,5 20 60 0,0
12.07.2019 08:00:00 17,8 11,1 16,3 20,7 17,7 14 7 24 13 W 1013,2 20 60 0,0
12.07.2019 07:00:00 15,5 10,7 14,1 20,8 17,7 4 2 15 8 WNW 1013,3 20 9 0,0
12.07.2019 06:00:00 16,5 11,0 13,0 21,0 17,7 8 4 11 6 W 1012,8 20 0 0,0
12.07.2019 05:00:00 17,1 12,2 15,6 21,1 17,7 3 2 18 10 WNW 1012,7 20 0 0,0
12.07.2019 04:00:00 16,9 13,0 15,4 21,3 17,7 7 4 14 8 W 1012,4 20 0 0,0
12.07.2019 03:00:00 17,8 14,3 16,3 21,4 17,6 7 4 17 9 WNW 1012,4 20 0 0,0
12.07.2019 02:00:00 18,5 15,6 16,8 21,5 17,6 4 2 15 8 NW 1012,5 20 0 0,0
12.07.2019 01:00:00 18,0 15,3 16,4 21,6 17,6 8 4 10 5 N 1012,5 20 0 0,0
12.07.2019 00:00:00 18,1 15,4 16,5 21,7 17,7 7 4 10 6 N 1012,6 20 0 0,0
11.07.2019 23:00:00 18,4 15,5 16,5 21,8 17,6 2 1 13 7 NO 1012,7 20 0 0,0
11.07.2019 22:00:00 19,5 15,6 17,9 21,8 17,6 5 3 10 5 N 1012,4 20 0 0,0
11.07.2019 21:00:00 22,8 14,6 21,8 21,7 17,6 6 3 21 11 NNO 1011,9 20 19 0,0
11.07.2019 20:00:00 25,5 12,3 25,0 21,6 17,6 11 6 18 10 ZW 1011,9 20 15 0,0
11.07.2019 19:00:00 27,0 12,6 27,9 21,5 17,6 6 4 18 10 ZZW 1011,8 20 38 0,0
11.07.2019 18:00:00 26,3 14,7 29,7 21,4 17,6 9 5 18 10 ZZO 1012,1 20 51 0,0
11.07.2019 17:00:00 26,0 13,8 22,2 21,3 17,6 4 2 19 10 OZO 1012,4 20 23 0,0
11.07.2019 16:00:00 23,0 17,0 19,2 21,1 17,6 9 5 27 14 OZO 1012,8 20 2 0,0
11.07.2019 15:00:00 23,8 14,5 18,8 20,9 17,6 11 6 24 13 WZW 1013,1 19 0 0,0
11.07.2019 14:00:00 26,1 12,9 27,4 20,7 17,6 10 5 22 12 Z 1013,1 20 29 0,2
11.07.2019 13:00:00 23,8 12,4 26,6 20,6 17,6 9 5 16 9 Z 1013,8 20 0 0,0
11.07.2019 12:00:00 23,2 13,7 21,6 20,5 17,6 7 4 13 7 ZZO 1014,1 20 39 0,0
11.07.2019 11:00:00 19,2 15,3 17,5 20,6 17,7 3 2 7 4 ZZO 1014,9 20 0 0,0
11.07.2019 10:00:00 16,9 15,1 15,9 20,6 17,6 5 3 14 8 O 1014,3 18 0 0,0
11.07.2019 09:00:00 17,2 13,5 15,7 20,7 17,6 7 4 10 5 ZW 1015,1 14 0 0,0
11.07.2019 08:00:00 16,9 12,4 15,8 20,8 17,6 0 0 6 3 N 1014,5 20 0 0,0
11.07.2019 07:00:00 15,9 12,3 14,5 21,0 17,6 3 1 6 3 O 1014,6 20 0 0,0
11.07.2019 06:00:00 15,4 12,0 13,6 21,1 17,6 4 2 5 3 O 1014,6 18 0 0,0
11.07.2019 05:00:00 14,6 11,6 13,4 21,3 17,6 2 1 5 3 O 1014,8 20 0 0,0
11.07.2019 04:00:00 14,4 11,4 13,1 21,5 17,7 3 2 6 3 O 1015,0 20 0 0,0
11.07.2019 03:00:00 14,9 11,5 12,9 21,6 17,6 5 3 6 3 O 1015,4 20 0 0,0
11.07.2019 02:00:00 14,5 10,9 12,9 21,8 17,7 0 0 2 1 N 1015,8 20 0 0,0
11.07.2019 01:00:00 15,0 11,0 13,3 21,9 17,6 3 2 6 4 NNW 1016,2 20 0 0,0
11.07.2019 00:00:00 16,8 11,1 13,7 22,1 17,7 0 0 7 4 N 1016,4 20 0 0,0

tt = temperatuur
td = dauwpunt
tt 5cm = temperatuur 5cm
tt -20cm = temperatuur -20cm
tt -100cm = temperatuur -100cm
ff = windsnelheid
fx = windstoten
dd = windrichting
ppp = luchtdruk
vv = zicht
sd = Zonneschijnduur
rr = neerslag

Weerstations in de omgeving